Regional Weather Roundup
Issued by NWS Memphis, TN

Home | Current Version | Previous Version | Text Only | Print | Product List | Glossary On
Versions: 1 2 3 4 5 6 7 8 9 10 11 12 13 14 15 16 17 18 19 20 21 22 23 24 25 26 27 28 29 30 31 32 33 34 35 36 37 38 39 40 41 42 43 44 45 46 47 48 49 50
000
ASUS44 KMEG 251910
RWRMEG
MEMPHIS CWA HOURLY WEATHER ROUNDUP
NATIONAL WEATHER SERVICE MEMPHIS TN
200 PM CDT SAT MAR 25 2017

...WEST TENNESSEE...

CITY           SKY/WX    TMP DP  RH WIND       PRES   REMARKS
MEMPHIS INTL   CLOUDY    66  60  81 S15G23    29.92F
NWS MEMPHIS      N/A     64 N/A N/A MISG        N/A
JACKSON        CLOUDY    65  58  78 S12G30    29.96F
SOMERVILLE     CLOUDY    64  57  77 S12G25    29.93F
BOLIVAR        PTSUNNY   64  57  77 SE16G25   29.96F
SAVANNAH       CLOUDY    63  59  88 S14       30.01S
DYERSBURG      LGT RAIN  62  59  90 S9G18     29.94F
PARIS          CLOUDY    61  54  77 S18       29.98S
HUNTINGDON     PTSUNNY   63  59  88 S13G23    29.98S FOG


...EASTERN ARKANSAS...

CITY           SKY/WX    TMP DP  RH WIND       PRES   REMARKS
JONESBORO      CLOUDY    65  60  84 S15       29.86F
WEST MEMPHIS   PTSUNNY   67  61  81 S21       29.90F
BATESVILLE     CLOUDY    66  50  55 SW15G28   29.86S
NEWPORT        PTSUNNY   68  54  60 MISG      29.85F
WALNUT RIDGE   PTSUNNY   70  55  60 S26       29.83F
BLYTHEVILLE    CLOUDY    64  62  93 S17       29.92F
SEARCY         MOSUNNY   70  53  54 SW10G23   29.89S
STUTTGART      PTSUNNY   70  50  49 W15       29.91S
PINE BLUFF     PTSUNNY   71  52  50 SW16      29.90F
MONTICELLO       N/A    N/A N/A N/A MISG      29.91F


...NORTH MISSISSIPPI...

CITY           SKY/WX    TMP DP  RH WIND       PRES   REMARKS
TUPELO         CLOUDY    62  58  86 SE12G20   30.02F
OXFORD         CLOUDY    61  55  82 S14G21    29.99F
BATESVILLE     CLOUDY    65  58  79 S12G18    29.97S
OLIVE BRANCH   CLOUDY   N/A N/A N/A S15       29.93F
TUNICA         CLOUDY    68  59  73 S20G28    29.93S
CLARKSDALE     MOSUNNY   68  61  77 S17G24    29.94S
GREENWOOD      CLOUDY    64  61  90 SE13      29.96F
COLUMBUS       CLOUDY    65  59  80 S13       30.03F
STARKVILLE     CLOUDY    63  59  88 S13       30.04F
GOLDEN TRIANGL MOSUNNY   64  55  72 S12       30.00F


...SOUTHEAST MISSOURI...

CITY           SKY/WX    TMP DP  RH WIND       PRES   REMARKS
KENNETT        CLOUDY    66  61  82 S18G24    29.88F
MALDEN         CLOUDY    64  61  88 S21       29.89F
WEST PLAINS    PTSUNNY   62  54  74 S8        29.80F
POPLAR BLUFF   CLOUDY    64  60  87 S20       29.86F
CAPE GIRARDEAU CLOUDY    62  57  83 S16       29.89F


...NORTHWEST ALABAMA...

CITY           SKY/WX    TMP DP  RH WIND       PRES   REMARKS
MUSCLE SHOALS  CLOUDY    66  59  78 S10       30.05F


...MIDDLE TENNESSEE...

CITY           SKY/WX    TMP DP  RH WIND       PRES   REMARKS
NASHVILLE      CLOUDY    75  53  46 S22       30.04F
CLARKSVILLE    CLOUDY    71  51  49 S23G29    29.98F
COLUMBIA       PTSUNNY   72  57  60 S13       30.02F


...WESTERN KENTUCKY...

CITY           SKY/WX    TMP DP  RH WIND       PRES   REMARKS
PADUCAH        CLOUDY    65  56  72 S10G24    29.93S
FORT CAMPBELL  CLOUDY    71  51  48 S17G26    29.97F


...CENTRAL ARKANSAS...

CITY           SKY/WX    TMP DP  RH WIND       PRES   REMARKS
LITTLE ROCK    PTSUNNY   67  51  56 W17       29.89F


SKY/WX REPORTED AS FAIR MEANS FEW OR NO CLOUDS BELOW
12 THOUSAND FEET.




USA.gov is the U.S. government's official web portal to all federal, state and local government web resources and services.